Leominster, MA

9:53 AM EST on February 19, 2017 (GMT -0500)
Fitchburg Municipal

Weather History for KFIT - August, 2014

Change the Weather History Date:

Sunday, August 31, 2014

  Actual Average (KORH) Record (KORH)
Temperature  
Mean Temperature 74 °F -  
Max Temperature 82 °F 75 °F 93 °F (1953)
Min Temperature 66 °F 55 °F 39 °F (1976)
Cooling Degree Days 9    
Growing Degree Days 24 (Base 50)    
Moisture  
Dew Point 67 °F    
Average Humidity 74    
Maximum Humidity 91    
Minimum Humidity 62    
Precipitation  
Precipitation 0.08 in - - ()
Sea Level Pressure  
Sea Level Pressure 30.03 in    
Wind  
Wind Speed 7 mph (SW)    
Max Wind Speed 14 mph    
Max Gust Speed 21 mph    
Visibility 10 miles    
Events Rain    
Averages and records for this station are not official NWS values.
T = Trace of Precipitation, MM = Missing Value Source: NWS Daily Summary

Daily Weather History Graph

Daily Weather History Graph

Search for Another Location

Airport or City:

Trip Planner

Search our weather history database for the weather conditions in past years. The results will help you decide how hot, cold, wet, or windy it might be!

Date:

Astronomy

Aug. 31, 2014 Rise Set
Actual Time 6:10 AM EDT 7:22 PM EDT
Civil Twilight 5:41 AM EDT 7:51 PM EDT
Nautical Twilight 5:06 AM EDT 8:26 PM EDT
Astronomical Twilight 4:30 AM EDT 9:03 PM EDT
Moon 12:02 PM EDT (8/31) 10:27 PM EDT (8/31)
Length of Visible Light 14h 10m
Length of Day
13h 12m
Waxing Crescent, 32% of the Moon is Illuminated
Aug 31
Waxing Crescent
Sep 2
First Quarter
Sep 8
Full
Sep 15
Last Quarter
Sep 24
New

Hourly Weather History & Observations

Time (EDT) Temp. Heat Index Dew Point Humidity Pressure Visibility Wind Dir Wind Speed Gust Speed Precip Events Conditions
12:35 AM 66.9 °F - 61.0 °F 81% 30.13 in 10.0 mi SSE 6.9 mph - N/A   Mostly Cloudy
12:52 AM 66.9 °F - 61.0 °F 81% 30.14 in 10.0 mi South 5.8 mph - N/A   Overcast
1:52 AM 68.0 °F - 62.1 °F 81% 30.12 in 10.0 mi SSE 6.9 mph - N/A   Overcast
2:52 AM 71.1 °F - 63.0 °F 75% 30.11 in 10.0 mi South 5.8 mph - N/A   Overcast
3:52 AM 72.0 °F - 63.0 °F 73% 30.09 in 10.0 mi Variable 5.8 mph - N/A   Overcast
4:52 AM 72.0 °F - 64.0 °F 76% 30.09 in 10.0 mi SW 3.5 mph - N/A   Overcast
5:52 AM 72.0 °F - 64.0 °F 76% 30.09 in 10.0 mi Variable 3.5 mph - N/A   Overcast
6:22 AM 71.1 °F - 63.0 °F 75% 30.09 in 10.0 mi Variable 6.9 mph - N/A   Scattered Clouds
6:52 AM 72.0 °F - 63.0 °F 73% 30.08 in 10.0 mi SW 3.5 mph - N/A   Clear
7:52 AM 73.0 °F - 64.9 °F 76% 30.07 in 10.0 mi Variable 4.6 mph - N/A   Clear
8:52 AM 75.9 °F - 66.0 °F 71% 30.07 in 10.0 mi SW 8.1 mph - N/A   Clear
9:52 AM 78.1 °F - 66.9 °F 68% 30.07 in 10.0 mi West 13.8 mph 20.7 mph N/A   Partly Cloudy
10:25 AM 78.1 °F - 66.9 °F 68% 30.08 in 10.0 mi SW 13.8 mph 20.7 mph N/A   Mostly Cloudy
10:52 AM 78.1 °F - 66.9 °F 68% 30.07 in 10.0 mi West 9.2 mph 17.3 mph N/A   Overcast
11:20 AM 78.1 °F - 66.9 °F 68% 30.06 in 10.0 mi WSW 11.5 mph 20.7 mph N/A   Scattered Clouds
11:52 AM 81.0 °F 83.8 °F 68.0 °F 65% 30.05 in 10.0 mi WSW 8.1 mph - N/A   Partly Cloudy
12:52 PM 82.0 °F 84.9 °F 68.0 °F 62% 30.04 in 10.0 mi SW 12.7 mph 18.4 mph N/A   Clear
1:52 PM 82.0 °F 84.9 °F 68.0 °F 62% 30.02 in 10.0 mi West 11.5 mph 17.3 mph N/A   Scattered Clouds
2:43 PM 82.0 °F 85.5 °F 69.1 °F 65% 30.01 in 10.0 mi SW 9.2 mph - N/A   Mostly Cloudy
2:52 PM 81.0 °F 84.1 °F 69.1 °F 67% 30.00 in 10.0 mi WSW 8.1 mph - N/A   Overcast
3:16 PM 82.0 °F 85.5 °F 69.1 °F 65% 30.00 in 10.0 mi WSW 8.1 mph - N/A   Overcast
3:35 PM 80.1 °F 82.9 °F 69.1 °F 69% 30.00 in 10.0 mi SSW 8.1 mph - N/A   Overcast
3:48 PM 80.6 °F 83.9 °F 69.8 °F 70% 29.99 in 10.0 mi SW 6.9 mph - N/A   Overcast
3:52 PM 81.0 °F 84.4 °F 70.0 °F 69% 29.99 in 10.0 mi SW 8.1 mph - N/A   Overcast
4:52 PM 81.0 °F 84.4 °F 70.0 °F 69% 29.97 in 10.0 mi Variable 5.8 mph - N/A   Scattered Clouds
5:35 PM 81.0 °F 84.4 °F 70.0 °F 69% 29.98 in 10.0 mi SSW 4.6 mph - N/A   Overcast
5:49 PM 80.6 °F 83.9 °F 69.8 °F 70% 29.98 in 9.0 mi SW 5.8 mph - N/A   Overcast
5:52 PM 81.0 °F 84.4 °F 70.0 °F 69% 29.97 in 9.0 mi Variable 4.6 mph - N/A   Mostly Cloudy
6:52 PM 79.0 °F - 71.1 °F 77% 29.96 in 9.0 mi Calm Calm - 0.00 in Rain Light Rain
7:52 PM 77.0 °F - 72.0 °F 84% 29.98 in 6.0 mi South 6.9 mph - 0.01 in Rain Light Rain
8:52 PM 75.0 °F - 71.1 °F 87% 29.99 in 7.0 mi South 4.6 mph - 0.07 in Rain Light Rain
10:52 PM 73.9 °F - 71.1 °F 91% 29.96 in 10.0 mi Calm Calm - N/A   Mostly Cloudy
11:03 PM 73.9 °F - 71.1 °F 91% 29.97 in 10.0 mi Calm Calm - N/A   Overcast
11:17 PM 73.9 °F - 71.1 °F 91% 29.96 in 10.0 mi South 3.5 mph - N/A   Mostly Cloudy
11:52 PM 73.9 °F - 71.1 °F 91% 29.96 in 10.0 mi Calm Calm - N/A   Mostly Cloudy